Flag for United Kingdom Weather past 2 weeks in York, England, United Kingdom

Now
55 °F

Broken clouds.


Feels Like: 54 °F
Forecast: 45 / 65 °F
Wind: 7 mph from Southwest

Location: Linton-On-Ouse

Current Time: Aug 23, 2014 at 6:29:47 PM

Latest Report: Aug 23, 2014 at 5:50 PM


Visibility: N/A

Pressure: 29.95 "Hg

Humidity: 72%

Dew point: 46 °F

Location of YorkLocation

Historic Weather in York — Graph

°F

York temperature yesterday

Maximum temperature yesterday: 63 °F (at 3:50 PM)
Minimum temperature yesterday: 50 °F (at 3:50 AM)
Average temperature yesterday: 55 °F

Past Weeks' High & Low Weather Summary

 TemperatureHumidityPressure
High68 °F (Aug 9, 1:50 PM)100% (Aug 8, 7:50 PM)30.07 "Hg (Aug 8, 7:50 PM)
Low45 °F (Aug 20, 3:50 AM)42% (Aug 22, 4:50 PM)29.24 "Hg (Aug 10, 1:50 PM)
Average57 °F75%29.73 "Hg
* Reported Aug 8 4:50 PM — Aug 23 4:50 PM, York, Weather by CustomWeather, © 2014

Note: Actual official high and low records may vary slightly from our data, if they occured in-between our weather recording intervals... More about our weather records

Advertising

York weather history for previous 24 hours

 ConditionsComfort  
Time TempWeatherWind HumidityBarometerVisibility
4:50 PM
Aug 23
57 °FPartly sunny.5 mph67%29.95 "HgN/A
3:50 PM57 °FScattered showers. Broken clouds.16 mph67%29.95 "HgN/A
2:50 PM61 °FPassing clouds.6 mph52%29.95 "HgN/A
1:50 PM55 °FScattered showers. Broken clouds.9 mph67%29.95 "HgN/A
12:50 PM54 °FPartly sunny.5 mph77%29.92 "HgN/A
11:50 AM57 °FScattered showers. Partly sunny.6 mph67%29.92 "HgN/A
10:50 AM55 °FPartly sunny.9 mph67%29.92 "HgN/A
9:50 AM54 °FPartly sunny.8 mph72%29.92 "HgN/A
8:50 AM52 °FSunny.8 mph72%29.89 "HgN/A
7:50 AM48 °FSunny.3 mph82%29.89 "HgN/A
6:50 AM45 °FClear.1 mph87%29.89 "HgN/A
5:50 AM46 °FClear.7 mph82%29.86 "HgN/A
4:50 AM46 °FPassing clouds.3 mph87%29.86 "HgN/A
3:50 AM46 °FPassing clouds.3 mph87%29.86 "HgN/A
2:50 AM50 °FOvercast.6 mph76%29.86 "HgN/A
1:50 AM52 °FPartly cloudy.8 mph72%29.86 "HgN/A
12:50 AM52 °FPassing clouds.8 mph72%29.86 "HgN/A
11:50 PM
Aug 22
52 °FPartly cloudy.7 mph77%29.86 "HgN/A
10:50 PM54 °FPassing clouds.7 mph72%29.86 "HgN/A
9:50 PM54 °FPassing clouds.9 mph72%29.86 "HgN/A
8:50 PM55 °FScattered clouds.8 mph67%29.86 "HgN/A
7:50 PM57 °FPartly sunny.8 mph59%29.83 "HgN/A
6:50 PM57 °FPartly sunny.12 mph59%29.83 "HgN/A
Weather by CustomWeather, © 2014

See weather overviewHow to use our weather pages